This is the latest recevied weather packets stored in our database for station/object W4NRG-1. If no packets are shown the sender has not sent any weather packets the latest 10 day(s).
| Time | Temp. | Humidity | Pressure | Rain* | Wind** | Luminosity | Snow |
|---|---|---|---|---|---|---|---|
| 1778260774 | 19.44° C | 42% | 1016.4 hPa | 0 mm | - | - | - |
| 1778260471 | 19.44° C | 42% | 1016.3 hPa | 0 mm | - | - | - |
| 1778260168 | 19.44° C | 42% | 1016.4 hPa | 0 mm | - | - | - |
| 1778259865 | 18.89° C | 42% | 1016.5 hPa | 0 mm | - | - | - |
| 1778259562 | 18.89° C | 41% | 1016.5 hPa | 0 mm | - | - | - |
| 1778259260 | 18.89° C | 39% | 1016.7 hPa | 0 mm | - | - | - |
| 1778258955 | 18.89° C | 39% | 1016.6 hPa | 0 mm | - | - | - |
| 1778258653 | 18.89° C | 35% | 1016.7 hPa | 0 mm | - | - | - |
| 1778258349 | 18.89° C | 32% | 1016.7 hPa | 0 mm | - | - | - |
| 1778258048 | 18.89° C | 30% | 1016.8 hPa | 0 mm | - | - | - |
| 1778257742 | 18.33° C | 34% | 1016.8 hPa | 0 mm | - | - | - |
| 1778257441 | 18.33° C | 34% | 1016.9 hPa | 0 mm | - | - | - |
| 1778257137 | 17.78° C | 34% | 1017.2 hPa | 0 mm | - | - | - |
| 1778256835 | 17.78° C | 38% | 1017 hPa | 0 mm | - | - | - |
| 1778256531 | 17.78° C | 40% | 1017 hPa | 0 mm | - | - | - |
| 1778256230 | 17.78° C | 42% | 1017.1 hPa | 0 mm | - | - | - |
| 1778255926 | 17.78° C | 47% | 1017.3 hPa | 0 mm | - | - | - |
| 1778255624 | 17.78° C | 45% | 1017.2 hPa | 0 mm | - | - | - |
| 1778255320 | 17.78° C | 49% | 1017.2 hPa | 0 mm | - | - | - |
| 1778255018 | 17.78° C | 46% | 1017 hPa | 0 mm | - | - | - |
| 1778254714 | 17.78° C | 45% | 1017.2 hPa | 0 mm | - | - | - |
| 1778254412 | 17.78° C | 45% | 1017.1 hPa | 0 mm | - | - | - |
| 1778254107 | 17.78° C | 46% | 1017.3 hPa | 0 mm | - | - | - |
| 1778253804 | 17.78° C | 44% | 1017.4 hPa | 0 mm | - | - | - |
| 1778253500 | 17.78° C | 45% | 1017.2 hPa | 0 mm | - | - | - |
* Rain latest hour (hover to see other rain measurements)
** Current wind speed in m/s (hover to see current wind gust speed)